Flag for Ukraine Weather past 2 weeks in Chernobyl, Ukraine

Now
68 °F

Mild.


Feels Like: 68 °F
Forecast: 54 / 77 °F
Wind: 3 mph from South

Location: Hostomel

Current Time: Aug 29, 2015 at 4:20:45 AM

Latest Report: Aug 29, 2015 at 4:00 AM


Visibility: 6 mi

Pressure: 30.01 "Hg

Humidity: 64%

Dew point: 55 °F

Location of ChernobylLocation

Historic Weather in Chernobyl — Graph

°F

Chernobyl temperature yesterday

Maximum temperature yesterday: 86 °F (at 1:30 PM)
Minimum temperature yesterday: 55 °F (at 6:00 AM)
Average temperature yesterday: 75 °F

Past Weeks' High & Low Weather Summary

 TemperatureHumidityPressure
High86 °F (Aug 28, 1:30 PM)94% (Aug 14, 7:00 AM)30.33 "Hg (Aug 14, 7:00 AM)
Low50 °F (Aug 20, 6:00 AM)26% (Aug 23, 4:00 PM)29.80 "Hg (Aug 15, 7:30 PM)
Average69 °F52%30.11 "Hg
* Reported Aug 14 3:00 AM — Aug 29 3:00 AM, Chernobyl, Weather by CustomWeather, © 2015

Note: Actual official high and low records may vary slightly from our data, if they occured in-between our weather recording intervals... More about our weather records

Advertising

Chernobyl weather history for previous 24 hours

 ConditionsComfort  
Time TempWeatherWind HumidityBarometerVisibility
3:00 AM
Sat, Aug 29
72 °FMild.8 mph57%30.04 "Hg6 mi
2:00 AM70 °FMild.6 mph60%30.01 "Hg6 mi
1:00 AM72 °FMild.6 mph57%30.04 "HgN/A
12:00 AM73 °FMild.6 mph53%30.04 "Hg6 mi
11:00 PM
Fri, Aug 28
75 °FMild.6 mph50%30.04 "Hg6 mi
10:00 PM77 °FWarm.6 mph47%30.04 "HgN/A
9:00 PM77 °FWarm.6 mph51%30.04 "Hg6 mi
8:00 PM81 °FWarm.6 mph45%30.04 "HgN/A
7:00 PM82 °FWarm.3 mph42%30.04 "Hg6 mi
6:00 PM84 °FPleasantly warm.8 mph40%30.04 "Hg6 mi
5:00 PM86 °FPassing clouds.10 mph35%30.04 "HgN/A
4:30 PM86 °FPassing clouds.10 mph35%30.04 "HgN/A
4:00 PM86 °FPassing clouds.13 mph35%30.07 "HgN/A
3:30 PM86 °FPassing clouds.10 mph33%30.07 "HgN/A
3:00 PM86 °FPassing clouds.8 mph33%30.07 "HgN/A
2:30 PM84 °FPassing clouds.8 mph35%30.07 "HgN/A
2:00 PM86 °FPassing clouds.8 mph33%30.09 "HgN/A
1:30 PM86 °FPassing clouds.10 mph33%30.09 "HgN/A
1:00 PM84 °FPassing clouds.10 mph33%30.09 "HgN/A
12:30 PM84 °FPassing clouds.10 mph33%30.12 "HgN/A
12:00 PM82 °FPassing clouds.8 mph32%30.12 "HgN/A
11:30 AM81 °FPassing clouds.10 mph34%30.12 "HgN/A
11:00 AM79 °FPassing clouds.13 mph37%30.12 "HgN/A
10:30 AM77 °FSunny.13 mph42%30.12 "Hg10 mi
10:00 AM75 °FPassing clouds.8 mph44%30.15 "HgN/A
9:30 AM72 °FPassing clouds.6 mph50%30.15 "HgN/A
9:00 AM68 °FSunny.6 mph56%30.15 "Hg10 mi
8:00 AM64 °FSunny.3 mph64%30.12 "Hg10 mi
7:00 AM57 °FClear.3 mph77%30.12 "Hg10 mi
6:00 AM55 °FCool.3 mph82%30.12 "Hg4 mi
5:00 AM59 °FCool.1 mph72%30.12 "Hg5 mi
4:00 AM59 °FCool.3 mph77%30.12 "Hg6 mi
Weather by CustomWeather, © 2015

See weather overviewHow to use our weather pages